Regional Weather Roundup
Issued by NWS Charleston, SC

Current Version | Previous Version | Text Only | Print | Product List | Glossary Off
Versions: 1 2 3 4 5 6 7 8 9 10 11 12 13 14 15 16 17 18 19 20 21 22 23 24 25 26 27 28 29 30 31 32 33 34 35 36 37 38 39 40 41 42 43 44 45 46 47 48 49 50

000
ASUS42 KCHS 202025
RWRCHS

REGIONAL WEATHER ROUNDUP
NATIONAL WEATHER SERVICE CHARLESTON SC
300 PM EST SAT DEC 20 2014

NOTE: "FAIR" INDICATES FEW OR NO CLOUDS BELOW 12,000 FEET WITH NO
SIGNIFICANT WEATHER AND/OR OBSTRUCTIONS TO VISIBILITY.

NOT ALL STATIONS ARE QUALITY CONTROLLED BY THE NATIONAL
WEATHER SERVICE. USE DATA WITH CAUTION...ESPECIALLY
DEWPOINT OBSERVATIONS.

SCZ027-030-031-034>040-042>050-202100-
...SOUTHEAST SOUTH CAROLINA...

CITY           SKY/WX    TMP DP  RH WIND       PRES   REMARKS
N CHARLESTON   CLOUDY    54  52  93 NE7       30.15R
WATERFRONT PRK   N/A     55 N/A N/A NE10        N/A
MOUNT PLEASANT CLOUDY    54  54 100 CALM      30.15S
PINOPOLIS        N/A     52  50  93 NE9       30.09S
MONCKS CORNER    N/A     54  50  87 NE6       30.16S FOG
SUMMERVILLE    CLOUDY    52  52 100 N7        30.16S
BEAUFORT MCAS  CLOUDY    55  51  86 N6        30.14R
BEAUFORT ARPT  CLOUDY    54  54 100 NE10      30.14R
HILTON HEAD IS PTSUNNY   55  54  94 N8        30.13F
WALTERBORO     CLOUDY    55 N/A N/A NE5       30.16S
ALLENDALE      CLOUDY    54  52  94 VRB6      30.15R

...SOUTHERN MIDLANDS AND PEE DEE...

CITY           SKY/WX    TMP DP  RH WIND       PRES   REMARKS
GEORGETOWN     NOT AVBL
KINGSTREE      NOT AVBL
ORANGEBURG     CLOUDY    49  46  90 NE9       30.17S
BARNWELL       CLOUDY    52  50  93 NE8       30.17R
AIKEN          CLOUDY    50  50 100 N5        30.20R FOG
MANNING        NOT AVBL
COLUMBIA       CLOUDY    49  44  83 NE7       30.18S
SUMTER         CLOUDY    47  42  83 NE9       30.17S
FLORENCE       CLOUDY    46  40  79 NE12      30.21R
MYRTLE BEACH   CLOUDY    48  45  87 NE14      30.19F
N MYRTLE BEACH CLOUDY    47  44  90 NE10      30.20R

$$

GAZ063-065-086>088-099>101-113>116-118-119-134>141-150-202100-
...SOUTHEAST GEORGIA...

CITY           SKY/WX    TMP DP  RH WIND       PRES   REMARKS
SAVANNAH ARPT  CLOUDY    55  50  83 N7        30.14R
HUNTER AAF     CLOUDY    56  53  91 NE6       30.11R
FORT STEWART   CLOUDY    57  51  79 N8        30.12R
STATESBORO     CLOUDY    55  54  98 CALM      30.14R
SYLVANIA       CLOUDY    55  53  93 NE3       30.15R
CLAXTON        CLOUDY    57  52  82 CALM      30.14S

...CSRA...CENTRAL AND FAR SOUTHEAST GEORGIA...

CITY           SKY/WX    TMP DP  RH WIND       PRES   REMARKS
THOMSON        CLOUDY    52  52 100 NE5       30.20S
AUGUSTA-BUSH   CLOUDY    52  49  89 NE8       30.16S
AUGUSTA-DANIEL CLOUDY    53  51  93 N5        30.16S FOG
SWAINSBORO     CLOUDY    57  57 100 E5        30.14S
VIDALIA        PTSUNNY   57  52  82 CALM      30.13S
EASTMAN        MOCLDY    58  54  86 CALM      30.15S
HAZLEHURST     MOCLDY    58  54  87 CALM      30.12S
ALMA           CLOUDY    58  50  75 N8        30.12R
WAYCROSS       CLOUDY    61  52  73 E5        30.11S
JESUP          CLOUDY    61  54  77 N6        30.12S
BAXLEY         PTSUNNY   59  52  77 N5        30.12S
BRUNSWICK      CLOUDY    61  54  77 NE5       30.12S
SAINT SIMONS   CLOUDY    60  53  77 NE8       30.11S

$$

SCZ027-028-034-036>038-045-046-048>050-GAZ119-141-202100-
...LAKE AND SUPPLEMENTAL COASTAL OBSERVATIONS...

STATION/POSITION TIME  TEMP    WIND        PRES    WAVE   SWELL
                       AIR SEA DIR/SP/G            HT/PER HT/PER/DIR
                 (UTC) (F)     (DEG/KT/KT) (MB)    (FT/S) (FT/S/D)
UPR LAKE MARION  NOT AVBL
WINYAH BAY       2000   49      40/ 10     1021.0S
LAKE MURRAY      1900   47      30/  2/  4 1021.3F
ACE BASIN NERRS  2000   54      20/  2     1020.0S
FORT PULASKI     2000   54 56   30/  7/  8 1020.4R
SAPELO ISLAND    2000   56      10/  8     1020.0S

$$

ANZ835-935-AMZ111-154-330-350-352-354-370-450-454-472-202100-
...C-MAN AND BUOY OBSERVATIONS...

STATION/POSITION TIME  TEMP    WIND        PRES    WAVE   SWELL
                       AIR SEA DIR/SP/G            HT/PER HT/PER/DIR
                 (UTC) (F)     (DEG/KT/KT) (MB)    (FT/S) (FT/S/D)
BUOY 41004       2000   61 68   50/ 19/ 23 1019.0F   4/ 5   2/ 8
BUOY 41008       2000   57 58   30/ 16/ 19 1019.2F   3/ 5   2/ 70/10
FOLLY BEACH CMAN 2000   53      40/ 15/ 16 1021.1F
CAPERS NEARSHORE 1900   53      50/ 16/ 17   N/A
FRIPP NEARSHORE  NOT AVBL


STATION/POSITION TIME  TEMP    WIND        PRES    WAVE   SWELL
                       AIR SEA DIR/SP/G            HT/PER HT/PER/DIR
                 (UTC) (F)     (DEG/KT/KT) (MB)    (FT/S) (FT/S/D)
5E ST. MARYS GA  2000      61                N/A     3/ 4
FRYING PAN BUOY  2000   54 66   40/ 17/ 19 1022.1R   3/ 4   2/150/ 9
BUOY 41025       2000   49                 1023.6F   3/ 7
CAPE LOOKOUT NC  2000   43      20/ 12/ 15 1023.6R
BUOY 41002       1948   65 71   80/ 16/ 17 1019.5F   3/11   2/ 80/11
BUOY 41010       2000   74 77  230/  4/  8 1018.4F   3/10   3/ 90/10
ST AUGUSTINE FL  2000   62     360/ 12/ 14 1018.9S


$$


USA.gov is the U.S. government's official web portal to all federal, state and local government web resources and services.